CZ-6A DEB, 56245

Orbit data source: Space-Track

CZ-6A DEB, 56245 is space debris in SSO originally from a launch on Fri, 11 Nov 2022 UTC launched from the Taiyaun Space Center, China (TSC). Debris objects in space refer to the collection of defunct objects orbiting the Earth. Examples of debris include non-operational satellites, rocket bodies, and fragments generated from explosions, collisions, or faulty payload assembly.

Loading next visibility...
Identifier
56245, 2022-151ABM
Orbit
SSO
Country
Flag of CNCN / PRC
Related business
Manufacturer
SAST
Mission
Spacecraft
Bus & Motor
Unknown
Mass
Unknown
Launch date (UTC)
2022-11-11 (4 years ago)
Launch vehicle
Unknown
Launch site
Taiyaun Space Center, China (TSC)
Object type
Payload
Rocket body
Debris
Shape & HBR
Unknown shape, 0.1 m
Radar Cross Section
Medium (>0.1 m² and <1 m²)

Expand to show TLE details & history
Last TLE update: 12 hours ago

TLE from 12 hours ago
0 CZ-6A DEB
1 56245U 22151ABM 26236.48589829  .00003695  00000-0  15840-2 0  9998
2 56245  98.8121 244.6979 0048893  99.7977 260.8728 14.24777397181604
Epoch: 2026-08-24T11:39Z
TLE epoch observation values (Epoch: 2026-08-24T11:39:41.612Z)
Latitude
0.00003°
Longitude
97.0076°
Altitude
817.902 km
Speed
7.441 km/s
True Right ascension
16h 18m 47s
True Declination
0° 00' 00"
Sunlit
Object was in daylight at epoch
Visualization orbit readout
Latitude
Unknown
Longitude
Unknown
Altitude
Unknown
Speed
Unknown
Apparent Right ascension
Unknown
Apparent Declination
Unknown
Sunlit
N/A
Visualization observer readout
Local Sidereal Time
15:05:44
Azimuth
Unknown
Elevation
Unknown
Doppler factor
Unknown
Orbital elements
Apogee altitude
841.526 km
Perigee altitude
771.271 km
Semi-major axis
7,184.535 km
Eccentricity
0.00489
Inclination
98.8121°
RAAN
244.6979°
Arg. of periapsis
99.7977°
True anomaly
260.32017°
Mean anomaly
260.8728°
Eccentric anomaly
260.59643°
Mean motion
3.56406 °/min
Orbital period
101.01 mins
BSTAR
0.001584
Loading maneuver chart data...
Computing Atmospheric mass density...
Loading historical data...
Loading historical data...
Loading historical data...
Loading historical data...
Loading historical data...
Loading historical data...
Loading historical data...

Documentation

Showing up to 5 results
|